Regional Weather Roundup
Issued by NWS Charleston, WV

Home | Current Version | Previous Version | Text Only | Print | Product List | Glossary Off
Versions: 1 2 3 4 5 6 7 8 9 10 11 12 13 14 15 16 17 18 19 20 21 22 23 24 25 26 27

000
ASUS41 KRLX 280010
RWRRLX
West Virginia Regional Weather Roundup
National Weather Service Charleston WV
800 PM EDT FRI MAY 27 2016

Note: "fair" indicates few or no clouds below 12,000 feet with no
significant weather and/or obstructions to visibility.

WVZ003-280100-
Northern Panhandle of West Virginia

CITY           SKY/WX    TMP DP  RH WIND       PRES   REMARKS
WHEELING         N/A     82  62  50 SW3       30.03R
$$

WVZ009-280100-
Northwest West Virginia

CITY           SKY/WX    TMP DP  RH WIND       PRES   REMARKS
PARKERSBURG      N/A     83  65  54 S3        30.04R
$$

WVZ006-280100-
Western West Virginia

CITY           SKY/WX    TMP DP  RH WIND       PRES   REMARKS
HUNTINGTON       N/A     83  65  54 SE5       30.00R
$$

WVZ015-280100-
West Central West Virginia

CITY           SKY/WX    TMP DP  RH WIND       PRES   REMARKS
CHARLESTON       N/A     77  59  53 SE13      30.03R
$$

WVZ022-031-280100-
North Central West Virginia

CITY           SKY/WX    TMP DP  RH WIND       PRES   REMARKS
CLARKSBURG       N/A     78  65  63 S5        30.05R
MORGANTOWN       N/A     82  60  47 VRB5      30.05S
$$

WVZ025-035-042-045-280100-
Southern West Virginia

CITY           SKY/WX    TMP DP  RH WIND       PRES   REMARKS
BECKLEY          N/A     71  62  73 CALM      30.13R
LOGAN            N/A     79  63  57 CALM      30.07R
BLUEFIELD        N/A     72  58  61 CALM      30.16R
LEWISBURG        N/A     75  59  57 CALM      30.14R
$$

WVZ047-280100-
Northern Mountains of West Virginia

CITY           SKY/WX    TMP DP  RH WIND       PRES   REMARKS
ELKINS           N/A     74  61  63 SE6       30.11S
$$

WVZ052-280100-
Eastern Panhandle of West Virginia

CITY           SKY/WX    TMP DP  RH WIND       PRES   REMARKS
MARTINSBURG    MOCLDY    77  63  61 SW5       30.06R
PETERSBURG       N/A     73  71  91 CALM      30.09S
$$




USA.gov is the U.S. government's official web portal to all federal, state and local government web resources and services.